When you browse on this site, cookies collect data to enhance your experience and personalize the content and advertising you see.
Visit our Privacy Policy to learn more. By continuing to use the site, you agree to this use of cookies and data.
  • In Hungary
  • List of Countries
  • For 7 days
  • Water Temperature
  • Satellite Maps
  • Weather Map
  • News
  • Weather Widgets
  • user-avatar
    Login

    Hourly Weather Trujillo

    Today, 17 July, Wednesday

    Time Temperature Precipitation Wind Pressure Humidity
    00:00 +25°C° 0 mm 4 mps 761 mmHg 95%
    01:00 +25°C° 0.1 mm 4 mps 761 mmHg 95%
    02:00 +25°C° 0.1 mm 4 mps 760 mmHg 94%
    03:00 +25°C° 0.1 mm 3 mps 760 mmHg 93%
    04:00 +25°C° 0.3 mm 3 mps 760 mmHg 91%
    05:00 +25°C° 0.3 mm 3 mps 760 mmHg 89%
    06:00 +26°C° 0.3 mm 3 mps 761 mmHg 87%
    07:00 +28°C° 0.1 mm 3 mps 761 mmHg 77%
    08:00 +31°C° 0.1 mm 3 mps 761 mmHg 66%
    09:00 +34°C° 0.1 mm 3 mps 761 mmHg 56%
    10:00 +33°C° 0.5 mm 4 mps 761 mmHg 66%
    11:00 +33°C° 0.5 mm 5 mps 761 mmHg 76%
    12:00 +32°C° 0.5 mm 6 mps 761 mmHg 86%
    13:00 +30°C° 2 mm 6 mps 760 mmHg 86%
    14:00 +30°C° 2 mm 6 mps 760 mmHg 87%
    15:00 +30°C° 2 mm 6 mps 759 mmHg 87%
    16:00 +29°C° 0.6 mm 6 mps 760 mmHg 89%
    17:00 +28°C° 0.6 mm 5 mps 760 mmHg 91%
    18:00 +28°C° 0.6 mm 5 mps 760 mmHg 93%
    19:00 +27°C° 0.3 mm 5 mps 760 mmHg 94%
    20:00 +26°C° 0.3 mm 5 mps 760 mmHg 96%
    21:00 +26°C° 0.3 mm 5 mps 761 mmHg 97%
    22:00 +26°C° 0 mm 5 mps 761 mmHg 98%
    23:00 +25°C° 0 mm 4 mps 761 mmHg 98%

    Tomorrow, 18 July, Thursday

    Time Temperature Precipitation Wind Pressure Humidity
    00:00 +25°C° 0 mm 4 mps 761 mmHg 98%
    01:00 +25°C° 0 mm 4 mps 760 mmHg 98%
    02:00 +25°C° 0 mm 4 mps 760 mmHg 98%
    03:00 +23°C° 0 mm 4 mps 759 mmHg 98%
    04:00 +23°C° 0 mm 4 mps 760 mmHg 97%
    05:00 +23°C° 0 mm 4 mps 760 mmHg 97%
    06:00 +23°C° 0 mm 4 mps 760 mmHg 96%
    07:00 +27°C° 0 mm 4 mps 761 mmHg 83%
    08:00 +30°C° 0 mm 4 mps 761 mmHg 70%
    09:00 +33°C° 0 mm 4 mps 761 mmHg 57%
    10:00 +34°C° 0 mm 5 mps 761 mmHg 50%
    11:00 +36°C° 0 mm 6 mps 761 mmHg 44%
    12:00 +38°C° 0 mm 7 mps 760 mmHg 38%
    13:00 +38°C° 0 mm 7 mps 760 mmHg 39%
    14:00 +38°C° 0 mm 7 mps 759 mmHg 41%
    15:00 +38°C° 0 mm 7 mps 759 mmHg 42%
    16:00 +35°C° 0 mm 7 mps 759 mmHg 52%
    17:00 +33°C° 0 mm 7 mps 759 mmHg 62%
    18:00 +30°C° 0 mm 7 mps 759 mmHg 72%
    19:00 +28°C° 0 mm 6 mps 760 mmHg 79%
    20:00 +27°C° 0 mm 6 mps 760 mmHg 86%
    21:00 +26°C° 0 mm 5 mps 761 mmHg 93%
    22:00 +25°C° 0 mm 5 mps 761 mmHg 94%
    23:00 +25°C° 0 mm 4 mps 760 mmHg 95%

    Day after tomorrow, 19 July, Friday

    Time Temperature Precipitation Wind Pressure Humidity
    00:00 +25°C° 0 mm 4 mps 760 mmHg 96%
    01:00 +24°C° 0 mm 3 mps 760 mmHg 95%
    02:00 +24°C° 0 mm 3 mps 759 mmHg 94%
    03:00 +24°C° 0 mm 3 mps 759 mmHg 93%
    04:00 +24°C° 0 mm 2 mps 759 mmHg 91%
    05:00 +24°C° 0 mm 2 mps 760 mmHg 89%
    06:00 +24°C° 0 mm 2 mps 760 mmHg 87%
    07:00 +27°C° 0 mm 2 mps 760 mmHg 74%
    08:00 +30°C° 0 mm 2 mps 760 mmHg 62%
    09:00 +34°C° 0 mm 2 mps 761 mmHg 50%
    10:00 +35°C° 0 mm 3 mps 760 mmHg 52%
    11:00 +35°C° 0 mm 4 mps 760 mmHg 53%
    12:00 +35°C° 0 mm 5 mps 760 mmHg 54%
    13:00 +34°C° 0.3 mm 5 mps 759 mmHg 63%
    14:00 +33°C° 0.3 mm 6 mps 759 mmHg 73%
    15:00 +32°C° 0.3 mm 6 mps 758 mmHg 82%
    16:00 +30°C° 0.7 mm 5 mps 759 mmHg 84%
    17:00 +29°C° 0.7 mm 5 mps 759 mmHg 85%
    18:00 +28°C° 0.7 mm 5 mps 759 mmHg 87%
    19:00 +28°C° 0.4 mm 5 mps 759 mmHg 90%
    20:00 +27°C° 0.4 mm 5 mps 760 mmHg 93%
    21:00 +26°C° 0.4 mm 4 mps 760 mmHg 96%
    22:00 +26°C° 0.5 mm 4 mps 760 mmHg 96%
    23:00 +26°C° 0.5 mm 4 mps 760 mmHg 97%

    20 July, Saturday

    Time Temperature Precipitation Wind Pressure Humidity
    00:00 +25°C° 0.5 mm 4 mps 760 mmHg 97%
    01:00 +25°C° 0 mm 3 mps 759 mmHg 97%
    02:00 +25°C° 0 mm 3 mps 759 mmHg 97%
    03:00 +25°C° 0 mm 3 mps 758 mmHg 97%
    04:00 +25°C° 0 mm 3 mps 759 mmHg 96%
    05:00 +25°C° 0 mm 2 mps 759 mmHg 94%
    06:00 +25°C° 0 mm 2 mps 759 mmHg 93%
    07:00 +28°C° 0 mm 2 mps 759 mmHg 81%
    08:00 +31°C° 0 mm 3 mps 760 mmHg 68%
    09:00 +35°C° 0 mm 3 mps 760 mmHg 56%
    10:00 +35°C° 0.1 mm 4 mps 760 mmHg 57%
    11:00 +35°C° 0.1 mm 5 mps 760 mmHg 57%
    12:00 +36°C° 0.1 mm 6 mps 759 mmHg 58%
    13:00 +35°C° 0.7 mm 7 mps 759 mmHg 65%
    14:00 +33°C° 0.7 mm 7 mps 758 mmHg 73%
    15:00 +32°C° 0.7 mm 7 mps 758 mmHg 81%
    16:00 +30°C° 0.2 mm 7 mps 758 mmHg 83%
    17:00 +30°C° 0.2 mm 6 mps 758 mmHg 86%
    18:00 +29°C° 0.2 mm 5 mps 759 mmHg 89%
    19:00 +28°C° 0 mm 5 mps 759 mmHg 91%
    20:00 +27°C° 0 mm 5 mps 759 mmHg 92%
    21:00 +27°C° 0 mm 4 mps 760 mmHg 94%
    22:00 +26°C° 0 mm 4 mps 759 mmHg 94%
    23:00 +26°C° 0 mm 4 mps 759 mmHg 95%

    21 July, Sunday

    Time Temperature Precipitation Wind Pressure Humidity
    00:00 +26°C° 0 mm 4 mps 759 mmHg 95%
    01:00 +26°C° 0 mm 3 mps 759 mmHg 95%
    02:00 +26°C° 0 mm 3 mps 759 mmHg 95%
    03:00 +26°C° 0 mm 3 mps 758 mmHg 94%
    04:00 +26°C° 0 mm 3 mps 758 mmHg 93%
    05:00 +26°C° 0 mm 3 mps 759 mmHg 93%
    06:00 +26°C° 0 mm 3 mps 759 mmHg 92%
    07:00 +29°C° 0 mm 3 mps 759 mmHg 79%
    08:00 +31°C° 0 mm 3 mps 759 mmHg 67%
    09:00 +35°C° 0 mm 3 mps 760 mmHg 54%
    10:00 +34°C° 0.5 mm 4 mps 760 mmHg 63%
    11:00 +33°C° 0.5 mm 5 mps 759 mmHg 72%
    12:00 +32°C° 0.5 mm 5 mps 759 mmHg 82%
    13:00 +32°C° 0.4 mm 6 mps 759 mmHg 80%
    14:00 +33°C° 0.4 mm 6 mps 758 mmHg 78%
    15:00 +33°C° 0.4 mm 6 mps 758 mmHg 76%
    16:00 +32°C° 0.5 mm 6 mps 758 mmHg 80%
    17:00 +30°C° 0.5 mm 6 mps 758 mmHg 83%
    18:00 +29°C° 0.5 mm 5 mps 759 mmHg 87%
    19:00 +28°C° 0.2 mm 5 mps 759 mmHg 89%
    20:00 +27°C° 0.2 mm 5 mps 759 mmHg 92%
    21:00 +26°C° 0.2 mm 4 mps 760 mmHg 95%
    22:00 +26°C° 0 mm 4 mps 760 mmHg 95%
    23:00 +26°C° 0 mm 4 mps 760 mmHg 96%

    22 July, Monday

    Time Temperature Precipitation Wind Pressure Humidity
    00:00 +25°C° 0 mm 3 mps 760 mmHg 97%
    01:00 +25°C° 0 mm 3 mps 759 mmHg 97%
    02:00 +25°C° 0 mm 3 mps 759 mmHg 97%
    03:00 +25°C° 0 mm 3 mps 759 mmHg 96%
    04:00 +25°C° 0 mm 2 mps 759 mmHg 95%
    05:00 +25°C° 0 mm 2 mps 759 mmHg 94%
    06:00 +25°C° 0 mm 2 mps 759 mmHg 93%
    07:00 +28°C° 0 mm 2 mps 759 mmHg 79%
    08:00 +31°C° 0 mm 2 mps 759 mmHg 66%
    09:00 +34°C° 0 mm 1 mps 760 mmHg 52%
    10:00 +36°C° 0.1 mm 3 mps 760 mmHg 52%
    11:00 +36°C° 0.1 mm 4 mps 760 mmHg 51%
    12:00 +37°C° 0.1 mm 5 mps 760 mmHg 51%
    13:00 +36°C° 0.4 mm 6 mps 759 mmHg 57%
    14:00 +35°C° 0.4 mm 6 mps 759 mmHg 62%
    15:00 +34°C° 0.4 mm 6 mps 758 mmHg 68%
    16:00 +33°C° 0.1 mm 6 mps 758 mmHg 72%
    17:00 +30°C° 0.1 mm 6 mps 759 mmHg 75%
    18:00 +29°C° 0.1 mm 6 mps 759 mmHg 79%
    19:00 +28°C° 0 mm 5 mps 759 mmHg 84%
    20:00 +27°C° 0 mm 5 mps 760 mmHg 88%
    21:00 +26°C° 0 mm 5 mps 760 mmHg 93%
    22:00 +25°C° 0 mm 4 mps 760 mmHg 94%
    23:00 +25°C° 0 mm 4 mps 760 mmHg 95%
    Show more